SCP
0 0 0 0 0 0 -0 -0 0 -0 -0 0 0 0 0 0 0 0 0 -0 -1 -0 -0 0 -1 -0 -0 -0 -0 -0 -0 -0 -0 -0 -0 -0 -0 -0 -0 -0 -0 -0 -0 -0 0 0 0 0 0
0 0 0 0 0 0 -0 0 0 -0 -0 0 0 0 0 0 0 0 0 -0 -1 -0 0 0 0 -0 -0 -0 -0 -0 -0 -0 -0 -0 -0 -0 -0 -0 -0 -0 -0 -0 -0 -0 -0 -0 0 0 0
0 0 0 0 0 0 0 0 0 -0 0 0 0 0 0 0 0 0 -0 -0 -0 0 0 0 0 0 0 -0 -0 -0 -0 -0 -0 -0 -0 -0 -0 -0 -0 -0 -0 -0 -0 -0 -0 -0 -0 -0 0
0 0 0 0 0 0 0 0 0 0 -0 0 0 0 1 0 1 1 0 0 0 0 0 0 0 0 0 0 0 -0 -0 -0 -0 -0 -0 -0 -0 -0 -0 -0 -0 -0 -0 -0 -0 -0 -0 -0 0
0 0 0 0 0 0 -0 0 0 0 0 0 0 0 0 2 1 0 -0 1 0 0 0 1 0 0 0 0 0 0 -0 -0 -0 -0 -0 -0 -0 0 0 0 -0 -0 -0 -0 -0 -0 -0 0 0
0 0 0 0 0 0 0 0 0 0 0 -0 0 0 0 1 1 1 0 0 0 1 0 1 0 0 0 0 0 0 0 0 0 0 -0 -0 0 0 0 0 0 -0 -0 -0 -0 -0 -0 0 0
0 0 0 0 0 0 0 0 0 0 0 0 0 0 0 1 1 1 1 1 1 1 1 1 1 0 0 0 0 0 0 0 0 0 0 0 0 0 0 0 0 0 0 -0 -0 -0 0 0 0
0 0 0 0 0 0 0 0 0 0 0 0 0 0 0 0 1 2 2 2 1 1 1 1 1 1 0 0 0 0 0 0 0 0 0 0 0 0 0 0 0 0 0 0 -0 0 0 0 0
0 0 0 0 0 0 0 0 0 0 0 -0 0 0 0 1 1 3 2 2 2 1 1 1 1 1 0 0 0 0 0 0 0 0 0 0 0 0 0 0 0 0 0 0 0 0 0 0 0
0 0 0 0 0 0 0 0 0 -0 0 0 0 0 1 1 1 2 2 2 2 1 1 1 1 1 0 0 0 0 0 0 0 0 0 0 0 0 0 0 0 0 0 0 0 0 0 0 -0
0 0 0 0 0 0 0 0 -0 -0 0 0 0 0 0 0 1 1 2 1 1 1 1 1 1 1 1 1 1 1 1 0 0 0 0 0 0 0 0 0 0 0 0 0 0 0 0 0 0
0 0 0 0 0 0 0 0 0 -0 0 0 0 0 0 0 0 1 1 2 2 1 0 0 0 0 0 1 1 1 0 0 0 0 0 0 0 0 0 0 0 0 0 0 0 0 0 0 0
0 0 0 0 0 0 0 0 0 0 0 0 -0 0 0 0 0 0 1 1 2 1 0 0 0 0 0 1 1 1 0 0 0 0 0 0 0 0 0 0 0 0 0 0 0 0 0 -0 0
0 0 0 0 0 0 0 0 0 0 0 0 0 0 0 0 0 0 0 1 3 1 0 0 0 0 0 1 0 0 0 0 0 0 0 0 0 0 0 0 0 0 0 -0 -0 0 0 0 0
0 0 0 0 0 0 0 0 0 0 0 0 0 0 0 0 0 0 0 0 2 2 0 0 0 0 0 0 0 0 0 0 0 0 0 0 0 0 0 0 0 0 0 0 -0 0 0 0 0
0 0 0 0 0 0 0 0 0 0 0 0 0 0 0 0 0 0 0 0 1 3 1 0 0 0 0 0 0 0 0 0 0 0 0 0 0 0 0 0 0 0 0 0 0 0 0 0 0
0 0 0 0 0 0 0 0 0 0 0 0 0 0 0 0 0 0 0 0 0 1 2 1 0 0 1 0 0 0 0 0 0 0 0 0 0 0 0 0 0 0 0 0 0 0 0 0 0
0 0 0 0 0 0 0 0 0 0 0 0 0 0 0 0 0 0 0 0 0 1 3 3 1 0 1 0 0 0 0 0 0 0 0 0 0 0 0 0 0 0 0 0 0 0 0 0 0
0 -0 -0 -0 0 0 0 0 0 0 0 0 0 0 0 0 0 0 0 0 0 0 4 3 1 1 3 3 0 1 0 0 0 0 0 0 0 0 0 0 0 0 0 0 0 0 0 0 1
0 0 -0 -0 -0 0 0 0 0 0 0 0 0 0 0 0 0 0 0 0 0 0 2 3 2 1 1 2 2 1 2 0 0 0 0 0 0 0 0 0 0 0 0 0 0 0 0 0 1
0 0 0 0 -0 0 0 -0 -0 0 0 0 0 0 0 0 0 0 0 0 0 0 1 5 2 1 2 3 2 3 3 1 1 0 1 0 0 0 0 0 0 0 0 0 0 0 0 1 1
-0 0 0 0 0 0 0 -0 -0 -0 0 0 0 0 0 0 0 0 0 0 0 0 1 7 8 4 4 5 4 3 3 3 1 1 1 0 0 0 0 0 0 0 0 0 0 0 0 1 0
0 0 0 0 0 0 0 0 -0 0 0 0 0 0 0 0 0 0 0 0 0 0 0 4 12 6 5 7 3 5 3 2 2 1 2 1 1 0 0 0 1 0 0 0 0 1 1 1 0
-0 0 0 -0 -0 0 0 0 0 0 0 0 0 0 0 0 0 0 0 0 0 0 0 0 6 8 6 8 6 5 4 3 3 1 2 3 2 1 1 1 1 1 0 1 0 1 1 0 0
0 0 0 -0 0 0 0 0 0 0 0 0 0 0 0 0 0 0 0 0 0 0 0 0 4 5 6 5 7 4 4 4 2 3 2 3 5 3 3 2 1 1 1 1 1 1 0 0 0
0 0 0 0 0 0 -0 0 0 0 0 0 0 0 0 0 0 0 0 0 0 0 0 0 1 5 6 6 4 6 4 6 5 4 4 5 6 5 3 3 2 2 2 1 1 1 0 0 0
0 0 0 0 0 0 0 0 0 0 0 0 0 0 0 -0 0 0 0 0 0 0 0 0 0 6 7 6 7 5 6 5 5 4 4 6 5 5 3 3 3 3 3 1 1 1 1 0 0
-0 0 0 0 0 0 0 -0 0 0 -0 0 0 0 0 0 0 0 0 0 0 0 0 0 0 2 7 5 5 6 4 5 5 8 5 5 4 4 4 3 4 4 3 2 1 1 0 0 0
-0 0 -0 0 0 -0 -0 -0 -0 -0 -0 0 0 0 0 0 0 0 0 0 0 0 0 0 0 0 7 8 8 6 5 4 7 6 6 6 6 5 5 5 5 5 4 2 1 1 0 0 0
0 0 -0 -0 -0 -0 -0 -0 -0 -0 0 -0 0 0 0 0 0 0 0 0 -0 0 0 0 0 0 7 11 8 7 6 5 5 6 3 1 5 6 6 6 7 6 6 2 1 0 0 0 0
Wind_Speed_500mb
12 6 1 6 4 4 12 18 17 42 33 13 35 35 10 9 9 9 34 43 36 58 67 68 65 62 57 52 46 41 37 36 38 41 44 45 46 47 48 49 49 45 41 37 34 31 29 29 28
13 15 10 13 7 5 14 23 37 40 49 25 18 6 24 7 35 48 44 41 30 55 66 66 66 61 57 53 47 42 38 35 35 38 42 44 45 45 45 47 46 41 38 37 35 31 28 27 26
15 16 7 9 8 18 13 21 36 41 40 5 14 8 16 29 53 38 35 45 34 54 62 65 65 62 58 53 48 43 38 35 32 33 38 42 44 45 43 45 42 36 33 33 31 28 26 25 24
10 8 14 1 20 18 30 33 44 39 67 20 12 12 22 33 46 47 45 41 35 53 63 65 65 62 58 54 49 44 39 35 32 30 32 39 42 42 42 42 40 35 31 28 25 23 23 22 22
8 13 7 10 21 24 32 49 54 33 36 23 33 9 24 33 46 47 43 41 37 53 67 65 64 62 58 55 50 46 41 37 33 29 28 32 38 40 41 40 37 34 29 24 19 18 18 19 19
10 11 4 18 34 33 26 65 61 45 59 50 17 26 21 48 53 53 44 41 30 50 72 67 65 62 59 55 53 50 45 40 36 31 29 31 37 39 40 37 33 30 29 24 19 15 16 16 16
16 7 13 21 30 34 25 62 41 38 38 45 45 19 46 61 51 62 52 43 34 40 68 72 69 64 60 58 55 53 50 45 40 33 29 30 36 39 39 36 32 28 26 25 20 15 16 16 13
25 6 15 25 29 42 37 56 67 47 34 74 58 9 17 60 60 70 61 51 41 37 53 73 70 69 65 61 58 55 53 48 43 37 31 31 34 38 38 35 32 27 25 24 20 18 17 15 11
44 17 27 42 38 31 52 23 73 68 53 65 60 49 35 74 70 73 67 59 53 43 45 70 72 70 67 63 61 59 56 52 46 41 34 34 37 39 37 33 31 29 26 25 23 20 17 13 10
13 15 44 27 22 25 43 41 54 48 51 33 49 32 59 67 67 76 76 74 64 57 47 61 73 71 69 65 65 65 63 60 54 48 41 38 37 38 36 34 32 31 28 27 25 20 16 13 10
34 39 35 42 50 59 54 51 58 40 35 36 29 24 54 63 62 70 67 75 72 59 54 49 74 72 69 69 69 70 69 64 58 52 44 39 39 39 39 37 36 32 31 27 23 18 14 12 12
28 51 57 58 63 73 54 66 54 52 53 63 45 40 32 57 63 65 70 71 77 66 58 47 73 74 68 69 70 72 71 67 62 55 47 45 46 42 42 38 34 30 27 26 21 16 12 12 20
38 39 55 66 69 74 75 61 55 60 74 72 53 47 42 30 55 59 72 78 86 75 65 58 59 74 69 65 70 72 70 67 62 56 50 48 47 37 38 33 31 30 28 25 20 19 17 15 17
50 55 56 63 56 60 44 46 54 78 77 68 55 50 48 39 17 39 66 77 92 86 77 70 63 63 75 67 62 72 71 67 63 59 54 56 51 41 35 37 27 26 29 19 22 17 15 12 6
49 43 45 36 45 34 55 49 35 67 71 67 55 51 52 51 36 28 38 47 61 84 88 86 76 68 74 72 63 55 68 66 66 62 58 63 58 48 37 38 30 26 27 20 19 18 17 16 15
34 30 31 21 32 45 41 50 39 48 42 48 54 60 58 60 60 43 30 43 8 82 84 89 83 79 75 75 65 57 59 61 60 62 62 67 64 53 45 48 39 33 27 25 29 27 34 26 18
16 30 33 34 29 33 41 46 23 53 60 57 55 66 65 57 62 62 57 36 31 33 84 88 89 84 83 73 60 55 55 55 51 57 59 67 71 62 51 59 49 44 45 45 46 44 39 26 18
18 28 34 32 29 43 43 37 35 57 50 60 73 65 68 77 82 71 69 67 46 23 61 92 89 78 73 74 65 59 58 58 55 57 56 56 74 72 58 57 56 55 52 53 52 45 35 31 21
34 19 23 26 27 30 39 38 35 48 63 52 68 73 66 61 90 94 68 70 74 63 53 87 89 87 88 84 75 74 70 67 66 64 59 56 60 70 68 65 59 58 55 54 42 41 40 37 38
33 29 16 27 29 23 39 42 32 40 37 48 63 71 67 47 69 93 74 57 61 65 60 75 80 79 75 93 93 85 79 75 68 67 67 63 59 59 78 72 68 65 63 59 52 53 52 44 46
28 30 23 21 17 23 25 29 19 47 49 57 58 27 31 35 37 31 32 22 74 68 80 76 83 76 109 107 90 85 80 76 77 71 76 74 64 58 79 76 76 70 67 62 58 53 48 54 55
27 31 27 33 27 17 7 28 27 35 45 35 49 47 22 22 26 23 23 38 22 31 53 80 96 105 106 102 92 95 100 88 87 78 80 79 71 67 65 78 81 68 67 58 60 54 51 51 50
27 18 18 24 31 14 35 10 16 27 40 30 27 48 51 40 45 55 55 43 47 32 39 76 91 95 97 100 90 92 92 89 82 83 80 84 80 75 71 68 75 69 65 56 62 61 52 53 49
29 9 24 30 17 19 32 22 21 17 22 31 33 55 59 67 64 64 60 65 65 63 48 54 63 81 91 97 98 95 93 91 90 80 93 81 87 84 79 68 75 69 68 61 59 55 50 54 52
20 8 7 8 6 14 14 25 18 23 21 22 30 45 61 46 62 76 77 75 85 78 73 63 65 66 85 86 90 91 94 95 94 94 89 92 92 96 87 75 71 80 74 71 67 63 54 47 46
19 1 6 10 8 20 28 11 19 14 13 41 71 53 56 62 71 60 94 92 87 95 91 71 79 73 85 93 94 96 97 100 94 101 93 104 101 96 90 82 77 83 83 78 71 65 53 51 47
12 8 17 5 11 6 9 14 7 31 33 43 59 73 52 79 64 59 74 69 87 98 96 93 73 89 86 94 99 95 104 110 105 97 96 98 99 97 90 85 85 84 89 85 76 67 62 59 48
9 25 5 3 7 10 11 11 5 32 34 39 39 45 67 85 84 34 36 17 4 43 95 88 90 90 97 91 104 97 104 114 112 108 93 96 97 96 88 86 92 93 93 94 82 71 65 60 48
10 8 6 10 5 5 9 9 4 23 8 22 23 51 64 76 82 67 21 16 9 9 26 55 90 89 100 96 96 101 96 106 115 105 91 89 96 88 84 82 78 90 83 90 88 80 69 61 51
9 17 10 7 10 9 7 5 39 32 25 33 40 59 76 73 73 70 47 33 30 28 29 33 36 103 110 102 94 103 94 90 97 104 99 83 89 86 78 74 77 87 80 79 88 79 70 62 53
Wind_Direction_500mb
238 187 244 287 47 136 248 253 258 281 282 214 127 123 278 63 128 167 148 182 169 164 160 161 162 161 158 157 154 148 140 138 139 142 144 146 149 149 148 150 150 149 144 139 136 133 130 127 127
208 175 294 276 145 216 259 254 260 259 271 110 80 99 95 71 109 131 150 183 173 164 163 163 163 163 162 161 159 155 147 143 142 143 148 149 151 152 152 153 152 150 146 142 139 136 133 132 132
212 212 239 169 204 219 246 260 266 277 317 211 126 158 113 121 130 143 166 171 169 170 167 165 165 165 165 164 164 161 155 149 146 146 149 153 154 156 156 156 155 153 147 144 141 139 137 137 134
175 218 258 194 242 241 228 249 262 287 291 254 121 100 87 143 151 153 165 177 177 174 170 167 166 168 168 167 167 165 161 155 152 150 154 158 157 158 159 160 161 158 153 148 144 144 145 145 143
198 262 236 224 249 263 263 260 267 274 277 260 188 200 107 131 143 156 173 186 183 178 172 170 169 170 171 170 170 171 168 164 161 157 157 160 162 161 164 165 167 166 164 163 157 151 154 156 152
260 226 286 235 250 260 260 264 271 273 280 288 236 173 134 146 145 159 172 182 188 179 174 173 172 172 173 174 174 174 174 171 168 166 165 167 168 166 166 168 171 174 175 176 174 165 165 168 162
231 312 239 251 265 273 264 263 261 267 275 277 279 160 153 156 159 164 171 182 194 163 175 176 174 175 176 178 178 178 179 178 177 175 173 172 175 172 170 171 173 177 179 179 180 181 180 178 169
240 229 271 263 258 263 267 275 277 280 279 278 270 211 165 158 154 161 160 170 184 175 179 181 178 178 180 182 182 181 182 182 182 181 180 179 179 180 177 178 181 182 187 187 189 194 189 183 171
248 243 249 245 244 266 286 291 291 293 288 291 293 247 171 160 153 159 160 170 177 184 184 187 183 182 183 184 182 183 184 186 186 187 187 187 186 183 183 184 189 193 195 195 198 197 191 185 168
229 234 239 247 273 279 280 288 295 316 303 306 309 145 149 149 152 160 163 172 179 181 189 195 189 186 186 186 185 184 187 189 191 192 191 190 186 184 185 188 191 194 195 200 201 198 194 189 169
246 254 269 270 269 262 270 282 302 303 304 292 330 182 156 157 160 170 172 175 186 190 185 189 191 190 190 190 189 186 189 191 193 196 194 192 185 185 190 191 194 196 198 201 205 203 200 192 170
256 249 259 269 264 267 273 283 283 288 280 296 298 311 192 171 170 176 180 183 183 190 194 191 196 193 193 193 194 191 191 193 195 195 195 194 186 188 195 195 196 198 202 204 205 201 201 187 172
284 284 277 261 261 262 267 266 270 279 281 286 291 289 306 188 189 191 194 189 190 190 199 195 196 193 194 197 196 196 196 198 200 199 196 196 190 189 198 194 201 200 201 204 187 167 166 164 191
295 295 295 295 294 292 275 259 255 261 271 282 283 278 290 293 286 218 200 195 189 195 200 200 198 192 195 201 201 200 200 200 204 203 197 191 193 195 198 192 178 185 179 162 166 149 178 189 261
304 305 304 297 302 291 290 285 265 255 263 268 274 274 274 277 277 253 223 207 195 191 198 200 197 190 194 197 208 205 206 203 205 205 198 192 190 196 204 199 183 166 164 156 160 167 202 214 227
281 282 285 297 298 296 301 273 273 283 288 292 281 269 271 268 268 263 263 226 202 192 191 197 195 186 193 196 204 208 206 202 203 204 197 193 192 196 200 195 195 182 186 191 184 199 210 223 171
265 264 272 270 269 298 282 285 291 280 268 275 275 269 254 259 263 261 252 251 227 200 197 199 194 183 186 194 194 207 204 203 204 204 195 195 195 197 198 198 193 188 191 194 191 201 216 206 189
336 323 301 299 306 313 307 313 334 320 290 238 252 252 243 247 251 253 249 247 244 223 202 195 190 184 192 196 186 195 200 209 207 208 206 199 201 202 201 199 192 190 197 206 209 215 208 205 208
313 279 270 276 288 294 288 289 300 311 305 285 232 244 240 249 238 240 244 245 244 248 212 201 196 185 190 198 185 186 192 205 206 210 215 206 206 208 206 199 197 195 202 207 198 195 208 212 206
310 298 255 259 278 308 319 302 307 295 284 293 303 227 228 243 231 224 225 232 236 237 237 208 200 205 217 203 203 199 195 202 209 210 213 215 214 214 212 200 197 200 207 209 202 210 211 212 219
295 299 304 314 321 281 294 293 313 309 312 315 300 278 208 215 217 219 229 254 224 229 238 214 209 207 200 199 204 198 202 200 204 209 216 217 217 217 215 205 201 204 210 214 216 214 216 219 221
314 319 321 316 308 286 287 301 310 300 299 301 300 306 271 268 281 285 269 237 243 243 235 225 205 194 201 202 200 205 204 202 207 207 215 218 220 219 217 213 205 209 216 218 216 214 220 221 219
304 341 341 320 316 325 282 253 262 294 285 285 294 285 281 262 269 274 274 275 252 261 228 215 206 202 204 206 208 208 209 214 210 213 217 219 220 222 222 218 209 210 218 221 217 220 220 226 227
312 3 329 302 273 261 257 252 267 254 265 276 284 293 302 252 253 255 254 261 261 257 249 215 213 208 213 210 210 212 217 215 209 214 213 219 218 219 221 221 210 209 215 220 215 216 220 224 228
315 46 328 322 1 273 271 246 232 253 231 259 283 285 292 281 250 249 243 236 244 248 247 236 220 213 213 213 213 219 223 221 222 213 217 216 219 218 215 219 213 208 215 219 219 217 221 225 226
339 288 187 291 295 296 293 263 239 250 290 6 343 283 295 306 297 280 239 234 228 235 241 236 227 232 215 214 215 220 226 224 217 217 217 217 218 219 219 221 219 214 215 220 223 221 221 224 224
351 346 306 175 247 272 253 284 286 19 7 360 347 354 347 339 300 266 235 222 226 225 234 238 234 230 216 215 219 222 226 224 219 219 217 216 217 222 227 229 219 214 216 221 219 217 217 222 220
296 300 317 304 300 301 303 301 5 2 359 352 346 333 346 349 350 267 236 290 200 226 230 230 229 230 220 219 220 224 228 226 224 218 216 218 222 227 231 226 222 219 218 219 219 216 218 221 216
358 6 357 271 143 263 327 318 140 6 12 295 333 350 345 330 343 351 330 230 316 338 24 238 227 228 224 221 224 225 227 230 227 222 217 219 222 223 225 221 214 214 216 223 221 215 213 215 215
222 322 328 324 346 289 236 311 40 32 5 345 336 348 345 332 326 346 344 3 345 349 359 20 10 225 227 222 224 223 228 235 232 227 221 223 216 213 214 215 214 215 214 226 224 213 211 207 209
Wind_Speed_850mb
12 6 1 6 4 4 12 18 17 42 33 13 35 35 10 9 9 9 34 43 36 58 67 68 65 62 57 52 46 41 37 36 38 41 44 45 46 47 48 49 49 45 41 37 34 31 29 29 28
13 15 10 13 7 5 14 23 37 40 49 25 18 6 24 7 35 48 44 41 30 55 66 66 66 61 57 53 47 42 38 35 35 38 42 44 45 45 45 47 46 41 38 37 35 31 28 27 26
15 16 7 9 8 18 13 21 36 41 40 5 14 8 16 29 53 38 35 45 34 54 62 65 65 62 58 53 48 43 38 35 32 33 38 42 44 45 43 45 42 36 33 33 31 28 26 25 24
10 8 14 1 20 18 30 33 44 39 67 20 12 12 22 33 46 47 45 41 35 53 63 65 65 62 58 54 49 44 39 35 32 30 32 39 42 42 42 42 40 35 31 28 25 23 23 22 22
8 13 7 10 21 24 32 49 54 33 36 23 33 9 24 33 46 47 43 41 37 53 67 65 64 62 58 55 50 46 41 37 33 29 28 32 38 40 41 40 37 34 29 24 19 18 18 19 19
10 11 4 18 34 33 26 65 61 45 59 50 17 26 21 48 53 53 44 41 30 50 72 67 65 62 59 55 53 50 45 40 36 31 29 31 37 39 40 37 33 30 29 24 19 15 16 16 16
16 7 13 21 30 34 25 62 41 38 38 45 45 19 46 61 51 62 52 43 34 40 68 72 69 64 60 58 55 53 50 45 40 33 29 30 36 39 39 36 32 28 26 25 20 15 16 16 13
25 6 15 25 29 42 37 56 67 47 34 74 58 9 17 60 60 70 61 51 41 37 53 73 70 69 65 61 58 55 53 48 43 37 31 31 34 38 38 35 32 27 25 24 20 18 17 15 11
44 17 27 42 38 31 52 23 73 68 53 65 60 49 35 74 70 73 67 59 53 43 45 70 72 70 67 63 61 59 56 52 46 41 34 34 37 39 37 33 31 29 26 25 23 20 17 13 10
13 15 44 27 22 25 43 41 54 48 51 33 49 32 59 67 67 76 76 74 64 57 47 61 73 71 69 65 65 65 63 60 54 48 41 38 37 38 36 34 32 31 28 27 25 20 16 13 10
34 39 35 42 50 59 54 51 58 40 35 36 29 24 54 63 62 70 67 75 72 59 54 49 74 72 69 69 69 70 69 64 58 52 44 39 39 39 39 37 36 32 31 27 23 18 14 12 12
28 51 57 58 63 73 54 66 54 52 53 63 45 40 32 57 63 65 70 71 77 66 58 47 73 74 68 69 70 72 71 67 62 55 47 45 46 42 42 38 34 30 27 26 21 16 12 12 20
38 39 55 66 69 74 75 61 55 60 74 72 53 47 42 30 55 59 72 78 86 75 65 58 59 74 69 65 70 72 70 67 62 56 50 48 47 37 38 33 31 30 28 25 20 19 17 15 17
50 55 56 63 56 60 44 46 54 78 77 68 55 50 48 39 17 39 66 77 92 86 77 70 63 63 75 67 62 72 71 67 63 59 54 56 51 41 35 37 27 26 29 19 22 17 15 12 6
49 43 45 36 45 34 55 49 35 67 71 67 55 51 52 51 36 28 38 47 61 84 88 86 76 68 74 72 63 55 68 66 66 62 58 63 58 48 37 38 30 26 27 20 19 18 17 16 15
34 30 31 21 32 45 41 50 39 48 42 48 54 60 58 60 60 43 30 43 8 82 84 89 83 79 75 75 65 57 59 61 60 62 62 67 64 53 45 48 39 33 27 25 29 27 34 26 18
16 30 33 34 29 33 41 46 23 53 60 57 55 66 65 57 62 62 57 36 31 33 84 88 89 84 83 73 60 55 55 55 51 57 59 67 71 62 51 59 49 44 45 45 46 44 39 26 18
18 28 34 32 29 43 43 37 35 57 50 60 73 65 68 77 82 71 69 67 46 23 61 92 89 78 73 74 65 59 58 58 55 57 56 56 74 72 58 57 56 55 52 53 52 45 35 31 21
34 19 23 26 27 30 39 38 35 48 63 52 68 73 66 61 90 94 68 70 74 63 53 87 89 87 88 84 75 74 70 67 66 64 59 56 60 70 68 65 59 58 55 54 42 41 40 37 38
33 29 16 27 29 23 39 42 32 40 37 48 63 71 67 47 69 93 74 57 61 65 60 75 80 79 75 93 93 85 79 75 68 67 67 63 59 59 78 72 68 65 63 59 52 53 52 44 46
28 30 23 21 17 23 25 29 19 47 49 57 58 27 31 35 37 31 32 22 74 68 80 76 83 76 109 107 90 85 80 76 77 71 76 74 64 58 79 76 76 70 67 62 58 53 48 54 55
27 31 27 33 27 17 7 28 27 35 45 35 49 47 22 22 26 23 23 38 22 31 53 80 96 105 106 102 92 95 100 88 87 78 80 79 71 67 65 78 81 68 67 58 60 54 51 51 50
27 18 18 24 31 14 35 10 16 27 40 30 27 48 51 40 45 55 55 43 47 32 39 76 91 95 97 100 90 92 92 89 82 83 80 84 80 75 71 68 75 69 65 56 62 61 52 53 49
29 9 24 30 17 19 32 22 21 17 22 31 33 55 59 67 64 64 60 65 65 63 48 54 63 81 91 97 98 95 93 91 90 80 93 81 87 84 79 68 75 69 68 61 59 55 50 54 52
20 8 7 8 6 14 14 25 18 23 21 22 30 45 61 46 62 76 77 75 85 78 73 63 65 66 85 86 90 91 94 95 94 94 89 92 92 96 87 75 71 80 74 71 67 63 54 47 46
19 1 6 10 8 20 28 11 19 14 13 41 71 53 56 62 71 60 94 92 87 95 91 71 79 73 85 93 94 96 97 100 94 101 93 104 101 96 90 82 77 83 83 78 71 65 53 51 47
12 8 17 5 11 6 9 14 7 31 33 43 59 73 52 79 64 59 74 69 87 98 96 93 73 89 86 94 99 95 104 110 105 97 96 98 99 97 90 85 85 84 89 85 76 67 62 59 48
9 25 5 3 7 10 11 11 5 32 34 39 39 45 67 85 84 34 36 17 4 43 95 88 90 90 97 91 104 97 104 114 112 108 93 96 97 96 88 86 92 93 93 94 82 71 65 60 48
10 8 6 10 5 5 9 9 4 23 8 22 23 51 64 76 82 67 21 16 9 9 26 55 90 89 100 96 96 101 96 106 115 105 91 89 96 88 84 82 78 90 83 90 88 80 69 61 51
9 17 10 7 10 9 7 5 39 32 25 33 40 59 76 73 73 70 47 33 30 28 29 33 36 103 110 102 94 103 94 90 97 104 99 83 89 86 78 74 77 87 80 79 88 79 70 62 53
Wind_Direction_850mb
238 187 244 287 47 136 248 253 258 281 282 214 127 123 278 63 128 167 148 182 169 164 160 161 162 161 158 157 154 148 140 138 139 142 144 146 149 149 148 150 150 149 144 139 136 133 130 127 127
208 175 294 276 145 216 259 254 260 259 271 110 80 99 95 71 109 131 150 183 173 164 163 163 163 163 162 161 159 155 147 143 142 143 148 149 151 152 152 153 152 150 146 142 139 136 133 132 132
212 212 239 169 204 219 246 260 266 277 317 211 126 158 113 121 130 143 166 171 169 170 167 165 165 165 165 164 164 161 155 149 146 146 149 153 154 156 156 156 155 153 147 144 141 139 137 137 134
175 218 258 194 242 241 228 249 262 287 291 254 121 100 87 143 151 153 165 177 177 174 170 167 166 168 168 167 167 165 161 155 152 150 154 158 157 158 159 160 161 158 153 148 144 144 145 145 143
198 262 236 224 249 263 263 260 267 274 277 260 188 200 107 131 143 156 173 186 183 178 172 170 169 170 171 170 170 171 168 164 161 157 157 160 162 161 164 165 167 166 164 163 157 151 154 156 152
260 226 286 235 250 260 260 264 271 273 280 288 236 173 134 146 145 159 172 182 188 179 174 173 172 172 173 174 174 174 174 171 168 166 165 167 168 166 166 168 171 174 175 176 174 165 165 168 162
231 312 239 251 265 273 264 263 261 267 275 277 279 160 153 156 159 164 171 182 194 163 175 176 174 175 176 178 178 178 179 178 177 175 173 172 175 172 170 171 173 177 179 179 180 181 180 178 169
240 229 271 263 258 263 267 275 277 280 279 278 270 211 165 158 154 161 160 170 184 175 179 181 178 178 180 182 182 181 182 182 182 181 180 179 179 180 177 178 181 182 187 187 189 194 189 183 171
248 243 249 245 244 266 286 291 291 293 288 291 293 247 171 160 153 159 160 170 177 184 184 187 183 182 183 184 182 183 184 186 186 187 187 187 186 183 183 184 189 193 195 195 198 197 191 185 168
229 234 239 247 273 279 280 288 295 316 303 306 309 145 149 149 152 160 163 172 179 181 189 195 189 186 186 186 185 184 187 189 191 192 191 190 186 184 185 188 191 194 195 200 201 198 194 189 169
246 254 269 270 269 262 270 282 302 303 304 292 330 182 156 157 160 170 172 175 186 190 185 189 191 190 190 190 189 186 189 191 193 196 194 192 185 185 190 191 194 196 198 201 205 203 200 192 170
256 249 259 269 264 267 273 283 283 288 280 296 298 311 192 171 170 176 180 183 183 190 194 191 196 193 193 193 194 191 191 193 195 195 195 194 186 188 195 195 196 198 202 204 205 201 201 187 172
284 284 277 261 261 262 267 266 270 279 281 286 291 289 306 188 189 191 194 189 190 190 199 195 196 193 194 197 196 196 196 198 200 199 196 196 190 189 198 194 201 200 201 204 187 167 166 164 191
295 295 295 295 294 292 275 259 255 261 271 282 283 278 290 293 286 218 200 195 189 195 200 200 198 192 195 201 201 200 200 200 204 203 197 191 193 195 198 192 178 185 179 162 166 149 178 189 261
304 305 304 297 302 291 290 285 265 255 263 268 274 274 274 277 277 253 223 207 195 191 198 200 197 190 194 197 208 205 206 203 205 205 198 192 190 196 204 199 183 166 164 156 160 167 202 214 227
281 282 285 297 298 296 301 273 273 283 288 292 281 269 271 268 268 263 263 226 202 192 191 197 195 186 193 196 204 208 206 202 203 204 197 193 192 196 200 195 195 182 186 191 184 199 210 223 171
265 264 272 270 269 298 282 285 291 280 268 275 275 269 254 259 263 261 252 251 227 200 197 199 194 183 186 194 194 207 204 203 204 204 195 195 195 197 198 198 193 188 191 194 191 201 216 206 189
336 323 301 299 306 313 307 313 334 320 290 238 252 252 243 247 251 253 249 247 244 223 202 195 190 184 192 196 186 195 200 209 207 208 206 199 201 202 201 199 192 190 197 206 209 215 208 205 208
313 279 270 276 288 294 288 289 300 311 305 285 232 244 240 249 238 240 244 245 244 248 212 201 196 185 190 198 185 186 192 205 206 210 215 206 206 208 206 199 197 195 202 207 198 195 208 212 206
310 298 255 259 278 308 319 302 307 295 284 293 303 227 228 243 231 224 225 232 236 237 237 208 200 205 217 203 203 199 195 202 209 210 213 215 214 214 212 200 197 200 207 209 202 210 211 212 219
295 299 304 314 321 281 294 293 313 309 312 315 300 278 208 215 217 219 229 254 224 229 238 214 209 207 200 199 204 198 202 200 204 209 216 217 217 217 215 205 201 204 210 214 216 214 216 219 221
314 319 321 316 308 286 287 301 310 300 299 301 300 306 271 268 281 285 269 237 243 243 235 225 205 194 201 202 200 205 204 202 207 207 215 218 220 219 217 213 205 209 216 218 216 214 220 221 219
304 341 341 320 316 325 282 253 262 294 285 285 294 285 281 262 269 274 274 275 252 261 228 215 206 202 204 206 208 208 209 214 210 213 217 219 220 222 222 218 209 210 218 221 217 220 220 226 227
312 3 329 302 273 261 257 252 267 254 265 276 284 293 302 252 253 255 254 261 261 257 249 215 213 208 213 210 210 212 217 215 209 214 213 219 218 219 221 221 210 209 215 220 215 216 220 224 228
315 46 328 322 1 273 271 246 232 253 231 259 283 285 292 281 250 249 243 236 244 248 247 236 220 213 213 213 213 219 223 221 222 213 217 216 219 218 215 219 213 208 215 219 219 217 221 225 226
339 288 187 291 295 296 293 263 239 250 290 6 343 283 295 306 297 280 239 234 228 235 241 236 227 232 215 214 215 220 226 224 217 217 217 217 218 219 219 221 219 214 215 220 223 221 221 224 224
351 346 306 175 247 272 253 284 286 19 7 360 347 354 347 339 300 266 235 222 226 225 234 238 234 230 216 215 219 222 226 224 219 219 217 216 217 222 227 229 219 214 216 221 219 217 217 222 220
296 300 317 304 300 301 303 301 5 2 359 352 346 333 346 349 350 267 236 290 200 226 230 230 229 230 220 219 220 224 228 226 224 218 216 218 222 227 231 226 222 219 218 219 219 216 218 221 216
358 6 357 271 143 263 327 318 140 6 12 295 333 350 345 330 343 351 330 230 316 338 24 238 227 228 224 221 224 225 227 230 227 222 217 219 222 223 225 221 214 214 216 223 221 215 213 215 215
222 322 328 324 346 289 236 311 40 32 5 345 336 348 345 332 326 346 344 3 345 349 359 20 10 225 227 222 224 223 228 235 232 227 221 223 216 213 214 215 214 215 214 226 224 213 211 207 209